Overview Statistics Trail Chart Weather Telemetry Raw packets
 

This is the latest recevied weather packets stored in our database for station/object SV9TNF-55. If no packets are shown the sender has not sent any weather packets the latest 10 day(s).

<< 27 28 29 30 31 32 33 >>
Time Temp. Humidity Pressure Rain* Wind** Luminosity Snow
1788253042 24.44° C 33% 1013.9 hPa 0 mm 3.58 m/s, 292° - -
1788252442 24.44° C 33% 1013.9 hPa 0 mm 3.58 m/s, 292° - -
1788251843 24.44° C 33% 1013.9 hPa 0 mm 3.58 m/s, 292° - -
1788251242 24.44° C 30% 1013.8 hPa 0 mm 4.02 m/s, 292° - -
1788250641 23.89° C 32% 1013.7 hPa 0 mm 4.47 m/s, 292° - -
1788250042 23.89° C 31% 1013.6 hPa 0 mm 4.92 m/s, 315° - -
1788249441 23.89° C 30% 1013.9 hPa 0 mm 4.47 m/s, 292° - -
1788248841 23.89° C 29% 1013.7 hPa 0 mm 4.47 m/s, 292° - -
1788248241 23.33° C 30% 1013.8 hPa 0 mm 3.58 m/s, 315° - -
1788247641 21.67° C 43% 1014.3 hPa 0 mm 0.89 m/s, 292° - -
1788247041 21.67° C 43% 1014.3 hPa 0 mm 0.89 m/s, 292° - -
1788246441 21.67° C 43% 1014.3 hPa 0 mm 0.89 m/s, 292° - -
1788245841 21.67° C 43% 1014.3 hPa 0 mm 0.89 m/s, 292° - -
1788245240 21.67° C 43% 1014.3 hPa 0 mm 0.89 m/s, 292° - -
1788244641 21.67° C 43% 1014.3 hPa 0 mm 0.89 m/s, 292° - -
1788244042 21.67° C 43% 1014.3 hPa 0 mm 0.89 m/s, 292° - -
1788243441 21.67° C 43% 1014.3 hPa 0 mm 0.89 m/s, 292° - -
1788242841 21.67° C 43% 1014.3 hPa 0 mm 0.89 m/s, 292° - -
1788242240 21.67° C 43% 1014.3 hPa 0 mm 0.89 m/s, 292° - -
1788241641 21.67° C 43% 1014.3 hPa 0 mm 0.89 m/s, 292° - -
1788241040 21.67° C 43% 1014.3 hPa 0 mm 0.89 m/s, 292° - -
1788240440 21.67° C 43% 1014.3 hPa 0 mm 0.89 m/s, 292° - -
1788239840 21.67° C 43% 1014.3 hPa 0 mm 0.89 m/s, 292° - -
1788239240 21.67° C 43% 1014.3 hPa 0 mm 0.89 m/s, 292° - -
1788238640 21.67° C 43% 1014.3 hPa 0 mm 0.89 m/s, 292° - -

* Rain latest hour (hover to see other rain measurements)
** Current wind speed in m/s (hover to see current wind gust speed)